Location: Coupvray
(48.8929°N, 2.7967°E)
Time: 20:56:58
(UTC+00:00)

SL-16 R/B - Pass Details

Date: 14 July 2020
Orbit: 985 x 1007 km, 99.5° (Epoch: 14 August)

Event Time Altitude Azimuth Distance (km) Brightness Sun altitude
Exits shadow 00:11:55 - 125° (SE) 3,000 4.8 -19.4°
Reaches altitude 10° 00:12:35 10° 123° (ESE) 2,773 4.6 -19.4°
Maximum altitude 00:18:06 35° 60° (ENE) 1,577 3.9 -19.3°
Drops below altitude 10° 00:23:40 10° 358° (N) 2,795 6.1 -19.2°
Sets 00:26:22 0° 350° (N) 3,749 6.9 -19.1°
